Regional Weather Roundup
Issued by NWS

Home | Current Version | Previous Version | Text Only | Print | Product List | Glossary Off
Versions: 1 2 3 4 5 6 7 8 9 10 11 12 13 14 15 16 17 18 19 20 21 22 23 24 25 26 27 28 29 30 31 32 33 34 35 36 37 38 39 40 41 42 43 44 45 46 47 48 49 50

000
ASUS43 KLOT 041512
RWRIL

ILLINOIS REGIONAL WEATHER ROUNDUP
NATIONAL WEATHER SERVICE CHICAGO/ROMEOVILLE IL
1000 AM CDT TUE AUG 04 2015

NOTE: "FAIR" INDICATES FEW OR NO CLOUDS BELOW 12,000 FEET WITH NO
SIGNIFICANT WEATHER AND/OR OBSTRUCTIONS TO VISIBILITY.

* THESE STATIONS ARE NOT UNDER NWS QUALITY CONTROL. THEY ALSO MAY NOT
  REPORT WEATHER SUCH AS PRECIPITATION OR FOG.

ILZ001-002-007-009-015-016-024-041600-
NORTHWEST ILLINOIS

CITY           SKY/WX    TMP DP  RH WIND       PRES   REMARKS
MOLINE         PTSUNNY   76  60  57 W6        30.01S
STERLING*      SUNNY     75  61  60 W8        29.98S
SAVANNA*       MOSUNNY   74  55  50 NW8       30.00S
$$

ILZ003-004-008-010-011-017-018-041600-
NORTH CENTRAL ILLINOIS

CITY           SKY/WX    TMP DP  RH WIND       PRES   REMARKS
ROCKFORD       PTSUNNY   76  56  49 NW13      30.00S
FREEPORT*      SUNNY     73  57  59 W7        30.02S
ROCHELLE*      SUNNY     73  58  59 W10       30.01S
DE KALB*       SUNNY     73  57  57 W9        30.01R
PERU*          SUNNY     73  59  62 W7        30.01F
$$

ILZ005-006-012>014-019>023-041600-
NORTHEAST ILLINOIS

CITY           SKY/WX    TMP DP  RH WIND       PRES   REMARKS
CHICAGO-OHARE  PTSUNNY   76  54  46 W10       29.97S
CHICAGO-MIDWAY PTSUNNY   79  52  38 W9        29.98R
AURORA         SUNNY     74  60  61 W6        30.00R
LANSING*       SUNNY     77  53  43 W6        29.99R
JOLIET*        SUNNY     76  57  51 W5        29.99S
WAUKEGAN       SUNNY     74  56  53 SW7       29.96S
DUPAGE AIRPORT SUNNY     75  55  49 W10       29.99R
KANKAKEE*      SUNNY     75  59  57 W3        30.01R
WHEELING       SUNNY     77  51  40 W8        29.98S
MORRIS*        SUNNY     75  59  57 W8        29.99S
ROMEOVILLE*    SUNNY     73  56  55 NW8       30.00R
NORTHERLY ISL    N/A     76  48  37 SW7         N/A
$$

LMZ740>746-041600-
SOUTHERN LAKE MICHIGAN

STATION/POSITION SKY/WX   TEMP    WIND        PRES    VSBY  WAVE
                          AIR SEA DIR/SP/G                  HT/PER
                          (F)     (DEG/KT/KT) (MB)    (MI)  (FT/S)
HARRISON CRIB              72     250/  6/  8   N/A
BURNHAM HARBOR             77     260/  6/  9   N/A
CALUMET HARBOR             74     230/  2/  6   N/A
BURNS HARBOR               71     280/  5/  6 1015.6R
MICHIGAN CITY              70     220/ 10/ 11   N/A
MICHIGAN CITY 6N           71 74  270/  6/  8   N/A           1/ 3
ST. JOSEPH                 71 73  280/  6/  6   N/A           1/ 3
$$

ILZ025>027-034>036-040-047-049-050-058-095>099-041600-
WEST-CENTRAL ILLINOIS

CITY           SKY/WX    TMP DP  RH WIND       PRES   REMARKS
QUINCY         CLOUDY    74  60  61 SE6       30.02R
GALESBURG*       N/A    N/A N/A N/A MISG        N/A
MACOMB*        PTSUNNY   71  62  71 CALM      30.04S
JACKSONVILLE*  CLOUDY    76  62  61 E5        30.01S
PITTSFIELD*    CLOUDY    73  64  74 E3        30.03R
$$

ILZ028>032-037-038-041>044-048-051>054-059>061-041600-
CENTRAL ILLINOIS

CITY           SKY/WX    TMP DP  RH WIND       PRES   REMARKS
PONTIAC        MOSUNNY   76  64  67 SW6       30.01S
BLOOMINGTON    MOSUNNY   76  63  64 SW6       30.03S
DECATUR        PTSUNNY   78  58  49 CALM      30.02S
PEORIA         PTSUNNY   77  61  57 S3        30.01F
LACON*         MOSUNNY   73  62  67 CALM      30.00S
LINCOLN*       PTSUNNY   77  60  56 CALM      30.01F
SPRINGFIELD    CLOUDY    76  63  64 CALM      30.01F
TAYLORVILLE    CLOUDY    73  63  68 CALM      30.02S
$$

ILZ033-039-045-046-055>057-062-063-041600-
EAST-CENTRAL ILLINOIS

CITY           SKY/WX    TMP DP  RH WIND       PRES   REMARKS
CHAMPAIGN      MOSUNNY   75  61  61 CALM      30.02F
DANVILLE*      MOSUNNY   73  62  69 SW3       30.00R
RANTOUL*       MOSUNNY   76  62  61 W3        30.02R
MATTOON        PTSUNNY   76  57  51 CALM      30.01S
PARIS*         PTSUNNY   75  62  65 CALM      30.03S
$$

ILZ079-100>102-041600-
SOUTHWEST ILLINOIS

CITY           SKY/WX    TMP DP  RH WIND       PRES   REMARKS
ALTON          PTSUNNY   77  66  69 CALM      30.00F
BELLEVILLE     MOSUNNY   80  71  75 E3        29.99R HX  83
CAHOKIA*       MOSUNNY   83  65  54 VRB7      29.99S HX  85
SPARTA*        MOSUNNY   80  69  68 E5        30.00F HX  83
$$

ILZ064>066-069>071-074>076-080>082-084>086-088>090-092>094-041600-
SOUTH-CENTRAL ILLINOIS

CITY           SKY/WX    TMP DP  RH WIND       PRES   REMARKS
CARBONDALE     MOSUNNY   83  73  72 S6        29.98F HX  89
CAIRO*         SUNNY     84  77  78 CALM      29.99S HX  94
EFFINGHAM*     CLOUDY    72  61  68 SE3       30.03S
MARION         MOSUNNY   84  73  70 S7        29.99F HX  91
MT. VERNON     PTSUNNY   79  64  61 E3        30.01S HX  81
CENTRALIA*     PTSUNNY   77  65  65 SE5       30.00F
SALEM*         PTSUNNY   78  67  69 CALM      30.01S
METROPOLIS*    SUNNY     85  76  74 CALM      29.99S HX  94
$$

ILZ067-068-072-073-078-083-087-091-041600-
SOUTHEAST ILLINOIS

CITY           SKY/WX    TMP DP  RH WIND       PRES   REMARKS
LAWRENCEVILLE  CLOUDY    76  67  73 CALM      30.01R
FLORA*         CLOUDY    76  66  70 E3        30.01F
FAIRFIELD*     PTSUNNY   77  68  73 CALM      30.00S
HARRISBURG*    PTSUNNY   81  72  73 SE3       30.00S HX  86
ROBINSON*      CLOUDY    76  60  57 CALM      30.02S
CARMI*         PTSUNNY   77  67  72 N6        30.00S
$$

ABBREVIATIONS USED IN REMARKS
   TC - TEMPERATURE IN CELSIUS
  WCI - WIND CHILL INDEX
   HX - HEAT INDEX
  VSB - VISIBILITY
$$



USA.gov is the U.S. government's official web portal to all federal, state and local government web resources and services.